Location: Ladrillo (historical)
(32.8195°N, 117.2231°W)
Time: 00:46:25
(UTC+00:00)

Courier 1B - Pass Details

Date: 16 March 2021
Orbit: 963 x 1209 km, 28.3° (Epoch: 15 April)

Event Time Altitude Azimuth Distance (km) Brightness Sun altitude
Rises 11:46:59 0° 257° (WSW) 3,958 - -27.9°
Reaches altitude 10° 11:49:53 10° 254° (WSW) 2,963 - -27.3°
Exits shadow 11:55:44 52° 217° (SW) 1,295 7.8 -26.1°
Maximum altitude 11:56:59 60° 177° (S) 1,193 7.8 -25.9°
Drops below altitude 10° 12:03:39 10° 98° (E) 2,786 10.8 -24.5°
Sets 12:06:18 0° 95° (E) 3,708 11.7 -24.0°
